F4IED-13 Weather Reports


Display with metric or nautical units.
time (UTC)temp
F
wind
direction
speed
MPH
gust
MPH
rain 1hr
in
rain 24hr
in
rain mn
in
humidity
%
barometer
mb
20260504230920 56 16 3.0 6.0 0.00 0.06 0.00 90 1009.9
20260504225917 56 19 3.0 5.0 0.00 0.06 0.00 90 1010.1
20260504224936 56 4 2.0 4.0 0.00 0.06 0.00 90 1010.3
20260504223913 56 356 2.0 6.0 0.00 0.06 0.00 90 1010.4
20260504222911 56 353 3.0 7.0 0.00 0.06 0.00 90 1010.5
20260504221909 56 5 2.0 4.0 0.00 0.06 0.00 90 1010.5
20260504220907 56 353 2.0 5.0 0.00 0.06 0.00 90 1010.6
20260504215905 56 4 2.0 4.0 0.00 0.06 0.06 89 1010.7
20260504214903 56 354 2.0 6.0 0.00 0.06 0.06 89 1010.8
20260504213900 56 357 2.0 4.0 0.00 0.06 0.06 89 1010.9
20260504212858 56 354 2.0 4.0 0.00 0.06 0.06 89 1010.9
20260504211856 56 4 2.0 3.0 0.00 0.06 0.06 89 1010.9
20260504210855 57 3 1.0 2.0 0.00 0.06 0.06 89 1010.9
20260504205852 57 18 2.0 4.0 0.00 0.06 0.06 89 1010.9
20260504204850 57 358 2.0 4.0 0.00 0.06 0.06 89 1010.9
20260504203848 57 7 2.0 4.0 0.00 0.06 0.06 88 1010.9
20260504202905 57 14 2.0 4.0 0.00 0.06 0.06 88 1010.8
20260504201843 57 14 2.0 4.0 0.00 0.06 0.06 88 1010.8
20260504200841 57 20 1.0 2.0 0.00 0.06 0.06 88 1010.9
20260504195838 57 12 2.0 4.0 0.00 0.06 0.06 88 1010.9
20260504194836 57 17 2.0 4.0 0.00 0.06 0.06 88 1011.0
20260504193835 57 355 2.0 3.0 0.00 0.06 0.06 87 1011.0
20260504192832 57 18 1.0 2.0 0.00 0.06 0.06 87 1011.0
20260504191830 58 22 1.0 2.0 0.00 0.06 0.06 87 1010.9
20260504190848 58 21 1.0 2.0 0.00 0.06 0.06 87 1010.8
20260504185826 58 357 2.0 4.0 0.00 0.06 0.06 87 1010.8
20260504184824 58 356 1.0 3.0 0.00 0.06 0.06 86 1010.8
20260504183823 58 351 1.0 2.0 0.00 0.07 0.06 86 1010.9
20260504182820 58 352 1.0 2.0 0.00 0.08 0.06 86 1010.8
20260504181818 58 351 1.0 3.0 0.00 0.08 0.06 86 1010.7
20260504180816 58 349 2.0 4.0 0.00 0.08 0.06 85 1010.6
20260504175814 59 355 1.0 2.0 0.00 0.08 0.06 85 1010.6
20260504174812 59 4 1.0 3.0 0.00 0.08 0.06 85 1010.6
20260504173810 59 357 1.0 2.0 0.00 0.08 0.06 85 1010.5
20260504172808 59 10 1.0 2.0 0.00 0.08 0.06 85 1010.5
20260504171806 59 4 1.0 3.0 0.01 0.08 0.06 85 1010.5
20260504170803 59 356 1.0 2.0 0.01 0.08 0.06 85 1010.5
20260504150740 60 24 2.0 4.0 0.01 0.05 0.03 85 1011.0
20260504140728 61 15 2.0 6.0 0.00 0.05 0.02 86 1011.2
20260504130717 60 45 1.0 4.0 0.01 0.05 0.02 86 1011.4
20260504110650 61 7 2.0 7.0 0.00 0.03 0.01 84 1012.0
20260504081614 58 195 1.0 2.0 0.01 0.03 0.01 90 1012.1
20260504080611 57 149 1.0 2.0 0.00 0.03 0.00 90 1012.1
20260504050534 55 5 1.0 2.0 0.00 0.03 0.00 90 1010.9
20260504045532 55 90 1.0 1.0 0.00 0.03 0.00 90 1010.9
20260504044531 55 174 1.0 1.0 0.00 0.03 0.00 89 1010.9
20260504043528 55 197 1.0 2.0 0.00 0.03 0.00 90 1011.0
20260504042526 55 21 1.0 1.0 0.00 0.03 0.00 90 1010.9
20260504041544 55 35 1.0 1.0 0.00 0.03 0.00 90 1011.0
20260504040522 55 142 1.0 1.0 0.00 0.03 0.00 90 1011.1
20260504035520 55 90 1.0 1.0 0.00 0.03 0.00 90 1011.1
20260504034518 55 135 1.0 2.0 0.00 0.03 0.00 90 1011.2
20260504033516 55 200 1.0 1.0 0.00 0.03 0.00 89 1011.3
20260504032535 55 0.0 1.0 0.00 0.03 0.00 89 1011.2
20260504031532 55 90 1.0 2.0 0.00 0.03 0.00 89 1011.3
20260504030510 55 123 1.0 1.0 0.00 0.03 0.00 89 1011.4
20260504025507 55 124 1.0 1.0 0.00 0.03 0.00 89 1011.4
20260504024507 55 126 1.0 1.0 0.00 0.03 0.00 89 1011.3
20260504023503 55 45 1.0 1.0 0.00 0.03 0.00 89 1011.3
20260504022501 55 90 1.0 1.0 0.00 0.03 0.00 89 1011.3
20260504021458 55 0.0 1.0 0.00 0.03 0.00 89 1011.4
20260504020457 55 0.0 1.0 0.00 0.03 0.00 89 1011.5
20260504015454 55 144 1.0 1.0 0.00 0.03 0.00 89 1011.3
20260504014452 55 90 1.0 1.0 0.00 0.03 0.00 89 1011.3
20260504013450 55 169 1.0 2.0 0.00 0.03 0.00 89 1011.3
20260504012448 55 158 1.0 3.0 0.00 0.03 0.00 89 1011.2
20260504011446 55 122 1.0 1.0 0.00 0.03 0.00 89 1011.2
20260504010443 55 90 1.0 1.0 0.00 0.03 0.00 89 1011.2
20260504005441 55 163 1.0 1.0 0.00 0.03 0.00 89 1011.5
20260504004439 55 152 1.0 2.0 0.00 0.03 0.00 89 1011.5
20260504003437 54 178 1.0 2.0 0.00 0.03 0.00 89 1011.4
20260504002456 54 129 1.0 1.0 0.00 0.03 0.00 89 1011.4
20260504001432 54 174 1.0 1.0 0.00 0.03 0.00 89 1011.5
20260504000431 54 167 1.0 1.0 0.00 0.03 0.00 88 1011.6
20260503235428 55 173 1.0 2.0 0.00 0.03 0.00 88 1011.6
20260503234426 55 156 1.0 2.0 0.00 0.03 0.00 88 1011.6
20260503233424 55 182 1.0 2.0 0.00 0.03 0.00 88 1011.6
20260503232423 55 122 1.0 1.0 0.00 0.03 0.00 88 1011.5